Riverdale, MD

10:01 PM EST on February 13, 2016 (GMT -0500)
College Park

Weather History for KCGS - July, 2013

Change the Weather History Date:

Friday, July 19, 2013

  Actual Average Record
Temperature  
Mean Temperature 88 °F -  
Max Temperature 97 °F 91 °F 100 °F (1986)
Min Temperature 78 °F 68 °F 55 °F (1957)
Cooling Degree Days 22    
Growing Degree Days 38 (Base 50)    
Moisture  
Dew Point 77 °F    
Average Humidity 70    
Maximum Humidity 99    
Minimum Humidity 50    
Precipitation  
Precipitation 0.00 in - - ()
Sea Level Pressure  
Sea Level Pressure 29.95 in    
Wind  
Wind Speed 2 mph (SSW)    
Max Wind Speed 12 mph    
Max Gust Speed 18 mph    
Visibility 9 miles    
Events      
Averages and records for this station are not official NWS values.
T = Trace of Precipitation, MM = Missing Value Source: NWS Daily Summary

Daily Weather History Graph

Daily Weather History Graph

Search for Another Location

Airport or City:

Trip Planner

Search our weather history database for the weather conditions in past years. The results will help you decide how hot, cold, wet, or windy it might be!

Date:

Astronomy

Jul. 19, 2013 Rise Set
Actual Time 5:57 AM EDT 8:29 PM EDT
Civil Twilight 5:26 AM EDT 9:00 PM EDT
Nautical Twilight 4:48 AM EDT 9:38 PM EDT
Astronomical Twilight 4:05 AM EDT 10:21 PM EDT
Moon 5:30 PM EDT (7/19) 2:36 AM EDT (7/19)
Length of Visible Light 15h 33m
Length of Day
14h 32m
Waxing Gibbous, 86% of the Moon is Illuminated
Jul 19
Waxing Gibbous
Jul 22
Full
Jul 29
Last Quarter
Aug 6
New
Aug 14
First Quarter

Hourly Weather History & Observations

Time (EDT) Temp. Heat Index Dew Point Humidity Pressure Visibility Wind Dir Wind Speed Gust Speed Precip Events Conditions
12:10 AM 83.5 °F 94.7 °F 78.8 °F 86% 30.01 in 10.0 mi Calm Calm - N/A   Clear
12:30 AM 83.3 °F 94.5 °F 79.2 °F 87% 30.01 in 10.0 mi Calm Calm - N/A   Clear
12:50 AM 84.7 °F 98.3 °F 79.9 °F 85% 30.01 in 10.0 mi Calm Calm - N/A   Clear
1:10 AM 82.8 °F 94.2 °F 79.9 °F 91% 30.01 in 10.0 mi Calm Calm - N/A   Clear
1:30 AM 83.5 °F 95.5 °F 79.7 °F 88% 30.01 in 10.0 mi Calm Calm - N/A   Clear
1:50 AM 81.5 °F 91.0 °F 79.7 °F 94% 30.01 in 7.0 mi Calm Calm - N/A   Clear
2:10 AM 81.7 °F 91.9 °F 80.1 °F 95% 30.01 in 7.0 mi Calm Calm - N/A   Clear
2:30 AM 84.6 °F 96.8 °F 78.8 °F 83% 30.01 in 10.0 mi Calm Calm - N/A   Clear
2:50 AM 83.5 °F 95.5 °F 79.7 °F 88% 30.01 in 10.0 mi Calm Calm - N/A   Clear
3:10 AM 81.1 °F 90.1 °F 79.7 °F 95% 30.01 in 7.0 mi Calm Calm - N/A   Clear
3:30 AM 80.6 °F 88.7 °F 79.7 °F 97% 30.01 in 5.0 mi Calm Calm - N/A   Clear
3:50 AM 80.6 °F 88.5 °F 79.5 °F 96% 30.00 in 7.0 mi Calm Calm - N/A   Clear
4:10 AM 80.6 °F 88.3 °F 79.0 °F 95% 30.00 in 7.0 mi Calm Calm - N/A   Clear
4:30 AM 80.2 °F 87.0 °F 78.4 °F 94% 30.00 in 7.0 mi Calm Calm - N/A   Clear
4:50 AM 79.9 °F - 78.4 °F 95% 30.00 in 7.0 mi Calm Calm - N/A   Clear
5:10 AM 79.5 °F - 78.4 °F 96% 30.00 in 7.0 mi Calm Calm - N/A   Clear
5:30 AM 79.0 °F - 78.6 °F 99% 30.00 in 5.0 mi Calm Calm - N/A   Clear
5:45 AM 78.8 °F - 78.3 °F 98% 30.00 in 5.0 mi Calm Calm - N/A   Clear
6:15 AM 78.8 °F - 78.4 °F 99% 30.01 in 3.0 mi Calm Calm - N/A   Clear
6:35 AM 78.8 °F - 78.1 °F 98% 30.01 in 4.0 mi Calm Calm - N/A   Clear
6:55 AM 80.8 °F 88.5 °F 78.6 °F 93% 30.00 in 5.0 mi Calm Calm - N/A   Clear
7:15 AM 83.5 °F 93.3 °F 77.4 °F 82% 30.00 in 7.0 mi Calm Calm - N/A   Clear
7:35 AM 84.6 °F 95.1 °F 77.5 °F 79% 30.00 in 7.0 mi Calm Calm - N/A   Clear
7:55 AM 85.3 °F 96.3 °F 77.4 °F 77% 30.00 in 10.0 mi Calm Calm - N/A   Clear
8:15 AM 86.2 °F 97.4 °F 77.2 °F 74% 30.01 in 10.0 mi SW 3.5 mph - N/A   Clear
8:35 AM 86.7 °F 98.8 °F 77.4 °F 74% 30.01 in 10.0 mi Calm Calm - N/A   Clear
8:55 AM 87.8 °F 100.2 °F 77.2 °F 71% 30.00 in 10.0 mi South 3.5 mph - N/A   Clear
9:15 AM 88.0 °F 100.7 °F 77.7 °F 71% 30.00 in 10.0 mi Calm Calm - N/A   Clear
9:35 AM 89.2 °F 102.4 °F 77.4 °F 68% 30.00 in 10.0 mi Calm Calm - N/A   Clear
9:55 AM 90.1 °F 105.0 °F 78.1 °F 68% 30.00 in 10.0 mi Calm Calm - N/A   Clear
10:15 AM 91.4 °F 105.8 °F 77.7 °F 64% 30.00 in 10.0 mi Calm Calm - N/A   Clear
10:35 AM 91.8 °F 106.1 °F 77.5 °F 63% 30.00 in 10.0 mi SW 4.6 mph - N/A   Clear
10:55 AM 92.3 °F 105.5 °F 76.8 °F 60% 29.99 in 10.0 mi Calm Calm - N/A   Clear
11:15 AM 93.0 °F 108.2 °F 77.5 °F 61% 29.99 in 10.0 mi Calm Calm - N/A   Clear
11:35 AM 92.8 °F 106.2 °F 76.8 °F 59% 29.98 in 10.0 mi South 3.5 mph - N/A   Clear
11:55 AM 93.4 °F 107.7 °F 77.4 °F 59% 29.98 in 10.0 mi Calm Calm - N/A   Clear
12:15 PM 94.3 °F 109.4 °F 77.5 °F 58% 29.98 in 10.0 mi Calm Calm - N/A   Clear
12:35 PM 95.5 °F 110.4 °F 77.0 °F 55% 29.97 in 10.0 mi SW 3.5 mph - N/A   Scattered Clouds
12:55 PM 95.0 °F 109.7 °F 76.8 °F 56% 29.96 in 10.0 mi Calm Calm - N/A   Scattered Clouds
1:15 PM 96.4 °F 111.2 °F 77.0 °F 53% 29.95 in 10.0 mi SW 4.6 mph - N/A   Mostly Cloudy
1:35 PM 95.9 °F 110.6 °F 76.6 °F 54% 29.95 in 10.0 mi SW 3.5 mph - N/A   Scattered Clouds
1:55 PM 95.7 °F 110.1 °F 76.8 °F 54% 29.94 in 10.0 mi SSW 3.5 mph - N/A   Scattered Clouds
2:15 PM 96.4 °F 112.0 °F 77.5 °F 54% 29.93 in 10.0 mi WSW 4.6 mph - N/A   Scattered Clouds
2:35 PM 95.5 °F 110.4 °F 77.2 °F 55% 29.93 in 10.0 mi South 6.9 mph - N/A   Mostly Cloudy
2:55 PM 97.2 °F 113.1 °F 77.2 °F 53% 29.91 in 10.0 mi SW 5.8 mph - N/A   Mostly Cloudy
3:15 PM 97.2 °F 113.1 °F 77.4 °F 53% 29.90 in 10.0 mi South 6.9 mph - N/A   Scattered Clouds
3:35 PM 97.2 °F 112.3 °F 77.0 °F 52% 29.89 in 10.0 mi South 8.1 mph - N/A   Scattered Clouds
3:55 PM 96.8 °F 110.5 °F 76.1 °F 51% 29.89 in 10.0 mi South 5.8 mph - N/A   Clear
4:15 PM 97.0 °F 110.1 °F 75.7 °F 50% 29.88 in 10.0 mi South 8.1 mph - N/A   Scattered Clouds
4:35 PM 96.3 °F 109.1 °F 75.6 °F 51% 29.88 in 10.0 mi South 8.1 mph - N/A   Scattered Clouds
4:55 PM 95.9 °F 108.9 °F 75.7 °F 52% 29.88 in 10.0 mi South 8.1 mph - N/A   Mostly Cloudy
5:15 PM 95.5 °F 109.6 °F 76.5 °F 54% 29.88 in 10.0 mi South 11.5 mph 18.4 mph N/A   Mostly Cloudy
5:35 PM 94.6 °F 108.8 °F 76.8 °F 56% 29.88 in 10.0 mi South 5.8 mph - N/A   Scattered Clouds
5:55 PM 95.9 °F 108.9 °F 75.7 °F 52% 29.89 in 10.0 mi SW 5.8 mph - N/A   Scattered Clouds
6:15 PM 95.2 °F 108.6 °F 76.1 °F 54% 29.88 in 10.0 mi SSW 6.9 mph - N/A   Scattered Clouds
6:35 PM 94.3 °F 107.1 °F 76.1 °F 55% 29.88 in 10.0 mi South 6.9 mph - N/A   Scattered Clouds
6:55 PM 93.7 °F 106.4 °F 76.1 °F 56% 29.87 in 10.0 mi SW 4.6 mph - N/A   Overcast
7:10 PM 93.2 °F 105.7 °F 76.1 °F 57% 29.87 in 10.0 mi SSW 6.9 mph - N/A   Scattered Clouds
7:35 PM 92.5 °F 105.3 °F 76.3 °F 59% 29.89 in 10.0 mi WSW 5.8 mph - N/A   Clear
7:55 PM 92.3 °F 105.5 °F 76.5 °F 60% 29.89 in 10.0 mi SW 5.8 mph - N/A   Clear
8:15 PM 91.6 °F 104.3 °F 76.3 °F 61% 29.90 in 10.0 mi WSW 3.5 mph - N/A   Clear
8:35 PM 91.6 °F 104.3 °F 76.3 °F 61% 29.90 in 10.0 mi SW 4.6 mph - N/A   Clear
8:55 PM 90.7 °F 103.8 °F 77.0 °F 64% 29.90 in 10.0 mi Calm Calm - N/A   Clear
9:15 PM 90.5 °F 103.4 °F 76.8 °F 64% 29.90 in 10.0 mi WSW 5.8 mph - N/A   Clear
9:35 PM 90.0 °F 101.3 °F 75.9 °F 63% 29.89 in 10.0 mi SSW 3.5 mph - N/A   Clear
9:55 PM 89.8 °F 99.7 °F 74.7 °F 61% 29.89 in 10.0 mi Calm Calm - N/A   Clear
10:15 PM 89.4 °F 96.8 °F 72.5 °F 57% 29.90 in 10.0 mi Calm Calm - N/A   Clear
10:35 PM 88.0 °F 96.5 °F 74.1 °F 63% 29.90 in 10.0 mi Calm Calm - N/A   Clear
10:55 PM 87.1 °F 94.9 °F 73.8 °F 64% 29.89 in 10.0 mi WSW 4.6 mph - N/A   Clear
11:35 PM 86.2 °F 93.0 °F 72.5 °F 64% 29.89 in 10.0 mi Calm Calm - N/A   Clear
11:55 PM 85.8 °F 92.2 °F 72.3 °F 64% 29.88 in 10.0 mi WSW 3.5 mph - N/A   Clear